www.pogodaiklimat.ru
ПОГОДА в Тульн-ан-дер-Донау
Время
(UTC), дата
11 29.07
10 29.07
12 29.07
13 29.07
14 29.07
15 29.07
17 29.07
16 29.07
18 29.07
19 29.07
20 29.07
21 29.07
23 29.07
22 29.07
00 30.07
01 30.07
02 30.07
03 30.07
05 30.07
04 30.07
06 30.07
07 30.07
08 30.07
09 30.07
11 30.07
10 30.07
12 30.07
13 30.07
14 30.07
15 30.07
17 30.07
16 30.07
18 30.07
19 30.07
20 30.07
21 30.07
23 30.07
22 30.07
00 31.07
01 31.07
02 31.07
03 31.07
05 31.07
04 31.07
06 31.07
07 31.07
08 31.07
09 31.07
11 31.07
10 31.07
12 31.07
13 31.07
14 31.07
15 31.07
17 31.07
16 31.07
18 31.07
19 31.07
20 31.07
21 31.07
23 31.07
22 31.07
00 1.08
01 1.08
02 1.08
03 1.08
05 1.08
04 1.08
06 1.08
07 1.08
08 1.08
09 1.08
11 1.08
10 1.08
12 1.08
13 1.08
14 1.08
15 1.08
17 1.08
16 1.08
18 1.08
19 1.08
20 1.08
21 1.08
23 1.08
22 1.08
00 2.08
01 2.08
02 2.08
03 2.08
05 2.08
04 2.08
06 2.08
07 2.08
08 2.08
09 2.08
11 2.08
10 2.08
12 2.08
13 2.08
14 2.08
15 2.08
17 2.08
16 2.08
18 2.08
19 2.08
20 2.08
21 2.08
23 2.08
22 2.08
00 3.08
01 3.08
02 3.08
03 3.08
05 3.08
04 3.08
06 3.08
07 3.08
08 3.08
09 3.08
11 3.08
10 3.08
12 3.08
13 3.08
14 3.08
15 3.08
17 3.08
16 3.08
18 3.08
19 3.08
20 3.08
21 3.08
23 3.08
22 3.08
00 4.08
01 4.08
02 4.08
03 4.08
05 4.08
04 4.08
06 4.08
07 4.08
08 4.08
09 4.08
11 4.08
10 4.08
12 4.08
13 4.08
14 4.08
15 4.08
17 4.08
16 4.08
18 4.08
19 4.08
20 4.08
21 4.08
23 4.08
22 4.08
00 5.08
01 5.08
02 5.08
03 5.08
05 5.08
04 5.08
06 5.08
07 5.08
08 5.08
09 5.08
Ветер
(напр.,м/с)
Видим. Явления Облачность Т
(С)
Тd
(С)
f
(%)
Тe
(С)
Тes
(С)
Комфортность P
(гПа)
Po
(гПа)
Тmin
(С)
Tmax
(С)
R
(мм)
R24
(мм)
S
(см)
ЮЗ 7 н/о н/о +26.0 +16.9 57 +30 +30 душно 1017.9 997.7
З 7 н/о н/о +26.5 +16.8 55 +30 +30 душно 1017.8 997.6
ЮЗ 6 50 км 6/5 1500 м
[Cu Sc Ac lent Ci fib]
+28.2 +16.9 50 +32 +35 душно 1017.3 997.4
ЮЗ 5 н/о н/о +28.7 +15.8 46 +32 +32 душно 1017.0 997.0
ЮЗ 5 н/о н/о +28.8 +15.5 44 +32 +32 душно 1016.8 996.8
Ю 5 50 км 6/4 1500 м
[Cu Sc Ac lent Ci fib]
+27.9 +16.1 49 +31 +33 душно 1016.7 996.8
ЮЗ 4 н/о н/о +26.1 +16.4 55 +30 +30 душно 1017.0 996.8
ЮЗ 5 н/о н/о +27.2 +16.8 53 +31 +31 душно 1016.8 996.7
Ю 1 50 км 5/1 2000 м
[St Ac lent Ci fib]
+24.6 +18.0 67 +29 +29 душно 1016.8 996.7 +29.6
Ю 1 н/о н/о +22.8 +17.6 72 +28 +28 душно 1017.4 997.0
Ю 1 н/о н/о +21.6 +16.6 73 +25 +25 комфорт 1017.9 997.4
ЮЗ 1 н/о н/о +20.8 +16.2 75 +25 +25 комфорт 1018.3 997.7
ЮЗ 1 н/о н/о +19.0 +15.8 82 +21 +21 комфорт 1018.7 998.0
З 1 н/о н/о +19.6 +15.9 79 +23 +23 комфорт 1018.4 997.8
ЮЗ 1 н/о н/о +17.9 +15.5 86 +19 +19 1018.8 998.0
В 1 н/о н/о +17.6 +15.5 87 +19 +19 1018.7 997.9
ЮЗ 1 н/о н/о +16.6 +15.3 92 +17 +17 1018.9 998.0
З 1 н/о н/о +16.7 +15.5 93 +18 +18 1019.1 998.2
штиль 0 60 км 3/0
[Ac lent]
+16.9 +15.5 91 +17 +18 1019.8 999.1
ЮЗ 1 н/о н/о +15.9 +14.8 93 +17 +17 1019.5 998.6
З 1 60 км 1/0
[Ac lent]
+20.0 +16.5 80 +24 +28 комфорт 1019.7 999.2 +15.8
З 2 н/о н/о +22.7 +17.0 70 +27 +27 душно 1020.0 999.5
ЮЗ 2 н/о н/о +25.3 +16.9 60 +29 +29 душно 1019.9 999.6
ЮЗ 2 60 км 3/0
[Ac lent Ci fib]
+27.2 +15.1 48 +30 +42 душно 1019.6 999.6
З 1 н/о н/о +29.6 +12.3 34 +30 +30 жарко 1019.1 999.1
СЗ 2 н/о н/о +28.3 +11.9 36 +29 +29 жарко 1019.4 999.3
З 1 60 км 3/1 1500 м
[Cu hum Ci fib]
+30.1 +12.1 33 +31 +47 жарко 1018.6 998.7
СЗ 2 н/о н/о +30.5 +13.5 35 +32 +32 жарко 1018.1 998.2
СЗ 2 н/о н/о +31.0 +13.8 35 +32 +32 жарко 1017.7 997.8
З 1 60 км 1/1 1500 м
[Cu med, cong]
+30.9 +13.4 34 +32 +39 жарко 1017.2 997.4
ЮВ 1 н/о н/о +29.4 +12.2 35 +30 +30 жарко 1016.5 996.5
В 2 н/о н/о +29.3 +12.2 35 +30 +30 жарко 1016.8 996.8
В 1 60 км 1/0
[Ac lent]
+26.8 +17.0 55 +31 +31 душно 1016.3 996.3 +31.3
В 1 н/о н/о +23.5 +16.1 63 +27 +27 душно 1016.7 996.4
В 1 н/о н/о +21.7 +14.6 64 +25 +25 комфорт 1017.1 996.6
С 1 н/о н/о +20.5 +14.4 68 +24 +24 комфорт 1017.4 996.8
штиль 0 н/о н/о +18.7 +16.1 85 +20 +20 1017.4 996.7
ЮЗ 1 н/о н/о +19.0 +15.9 82 +21 +21 комфорт 1017.6 996.9
Ю 1 н/о н/о +17.7 +15.0 84 +19 +19 1017.3 996.5
Ю 1 н/о н/о +16.8 +14.6 87 +18 +18 1017.6 996.8
З 1 н/о н/о +16.5 +15.0 91 +17 +17 1017.3 996.5
ЮЗ 2 н/о н/о +16.3 +14.7 90 +16 +16 1017.4 996.5
ЮЗ 1 60 км 4/0
[Ci fib]
+17.0 +15.0 88 +18 +19 1017.3 996.6
ЮЗ 2 н/о н/о +15.7 +14.4 92 +16 +16 1017.4 996.5
ЮЗ 1 50 км 3/0
[Ci fib]
+20.5 +16.1 76 +25 +29 комфорт 1017.3 996.9 +15.6
З 1 н/о н/о +23.1 +16.6 67 +28 +28 душно 1017.4 997.0
ЮЗ 2 н/о н/о +25.3 +15.9 56 +29 +29 душно 1016.8 996.6
СЗ 2 50 км 3/1 1200 м
[Cu hum Ac lent Ci fib]
+27.2 +16.1 51 +31 +41 душно 1016.5 996.6
С 2 н/о н/о +29.8 +15.9 43 +33 +33 душно 1015.8 995.9
СЗ 2 н/о н/о +28.1 +16.8 50 +32 +32 душно 1016.3 996.3
ЮЗ 1 60 км 3/1 1500 м
[Cu hum Ci fib]
+31.3 +16.5 41 +34 +50 душно 1015.1 995.4
З 2 н/о н/о +32.2 +14.8 35 +34 +34 душно 1014.5 994.8
З 5 н/о н/о +33.1 +14.6 33 +35 +35 душно 1014.2 994.5
СЗ 4 60 км 3/1 2000 м
[Cu hum Ci fib]
+32.5 +13.3 31 +33 +37 жарко 1013.9 994.3
СЗ 2 н/о н/о +29.7 +14.8 40 +32 +32 душно 1013.9 994.0
СЗ 3 н/о н/о +30.9 +14.8 38 +33 +33 душно 1013.8 994.0
СВ 3 60 км 5/0
[Ac lent Ci fib]
+27.3 +14.0 44 +29 +29 жарко 1014.2 994.3 +33.1
В 2 н/о н/о +24.5 +15.0 55 +27 +27 жарко 1015.0 994.8
СВ 1 н/о н/о +23.3 +14.0 56 +27 +27 душно 1015.7 995.3
штиль 0 н/о н/о +21.6 +15.9 70 +25 +25 комфорт 1015.9 995.4
ЮЗ 2 н/о н/о +19.1 +15.4 79 +21 +21 комфорт 1016.5 995.9
ЮЗ 1 н/о н/о +19.9 +15.9 78 +23 +23 комфорт 1016.4 995.8
ЮВ 1 н/о н/о +18.0 +14.2 78 +19 +19 1016.6 995.9
штиль 0 н/о н/о +17.1 +14.0 82 +17 +17 1016.7 995.9
СВ 1 н/о н/о +16.1 +13.9 87 +17 +17 1016.6 995.7
ЮВ 1 н/о н/о +15.8 +13.4 86 +16 +16 1016.6 995.7
штиль 0 60 км ясно +16.1 +14.3 89 +16 +18 1017.1 996.3
ЮВ 1 н/о н/о +15.2 +13.1 87 +16 +16 1016.8 995.9
штиль 0 60 км ясно +19.7 +14.0 70 +21 +26 комфорт 1016.4 995.9 +15.2
штиль 0 н/о н/о +22.1 +13.7 59 +25 +25 комфорт 1016.5 996.0
СВ 1 н/о н/о +24.1 +14.3 54 +27 +27 жарко 1016.2 995.9
СВ 2 60 км ясно +26.5 +13.1 44 +28 +42 жарко 1015.6 995.6
штиль 0 н/о н/о +28.1 +13.7 41 +30 +30 жарко 1015.1 995.1
СВ 2 н/о н/о +27.9 +13.9 42 +30 +30 жарко 1015.4 995.4
штиль 0 60 км 1/1 1500 м
[Cu hum]
+29.4 +13.5 38 +31 +50 жарко 1014.3 994.5
СВ 1 н/о н/о +30.0 +14.2 38 +32 +32 жарко 1013.7 993.8 0.0
ЮЗ 1 н/о н/о +29.9 +13.8 37 +31 +31 жарко 1013.5 993.6
В 1 60 км 1/1 1500 м
[Cu hum]
+29.5 +14.1 39 +31 +38 жарко 1013.1 993.3
СВ 2 н/о н/о +28.0 +14.9 45 +31 +31 душно 1012.6 992.6
В 2 н/о н/о +28.9 +12.7 37 +30 +30 жарко 1012.9 993.0
В 1 60 км 1/0
[Ci fib]
+26.2 +15.7 52 +29 +29 жарко 1012.5 992.5 +30.5
В 2 н/о н/о +23.0 +15.5 63 +27 +27 душно 1013.0 992.7
СВ 2 н/о н/о +22.3 +12.1 52 +25 +25 комфорт 1013.9 993.5
СВ 2 н/о н/о +21.0 +12.5 58 +24 +24 комфорт 1014.2 993.7
СВ 1 н/о н/о +19.2 +12.6 66 +21 +21 комфорт 1014.4 993.8
СВ 2 н/о н/о +20.3 +12.4 60 +23 +23 комфорт 1014.2 993.7
СВ 2 н/о н/о +18.0 +12.9 72 +19 +19 1014.2 993.5
СВ 2 н/о н/о +16.9 +12.9 77 +17 +17 1014.4 993.6
штиль 0 н/о н/о +16.3 +12.7 79 +16 +16 1014.3 993.5
С 2 н/о н/о +15.7 +12.6 82 +16 +16 1014.3 993.4
штиль 0 60 км 8/0
[Ac lent Ci fib]
+15.9 +13.1 83 +16 +17 1014.7 994.0
З 2 н/о н/о +15.0 +12.6 86 +15 +15 1014.6 993.7
штиль 0 н/о н/о +20.1 +15.1 73 +22 +26 комфорт 1013.8 993.5 +14.5 +27.1
С 1 н/о н/о +22.9 +15.4 63 +27 +27 душно 1013.5 993.2
В 1 н/о н/о +23.7 +13.2 52 +26 +26 жарко 1013.4 993.1
Ю 2 60 км 9/1 1200 м
[Cu hum Ac und Cs]
+25.0 +14.0 50 +27 +34 жарко 1013.4 993.3
ЮВ 3 н/о н/о +27.5 +14.9 46 +30 +30 жарко 1012.6 992.6
ЮВ 3 н/о н/о +25.9 +13.8 47 +28 +28 жарко 1013.2 993.1
ЮВ 3 60 км 9/1 1500 м
[Cu hum Ac lent Cs]
+27.8 +15.5 47 +31 +37 душно 1011.8 992.0
ЮВ 3 н/о н/о +28.5 +15.6 46 +32 +32 душно 1011.4 991.5
ЮВ 4 н/о н/о +27.8 +15.6 47 +31 +31 душно 1011.1 991.2
ЮЗ 3 50 км 9/1 1500 м
[Cu hum Ac As Cs]
+27.0 +17.3 55 +31 +33 душно 1010.9 991.0
ЮЗ 2 н/о н/о +25.4 +18.1 64 +30 +30 душно 1010.8 990.7
ЮЗ 3 н/о н/о +26.1 +17.8 60 +30 +30 душно 1010.7 990.7
ЮЗ 1 40 км 9/4 1500 м
[Cu Sc Ac As Cs]
+24.5 +18.1 68 +29 +29 душно 1010.7 990.7 +28.7
ЮЗ 3 н/о н/о +23.4 +16.9 67 +29 +29 душно 1011.2 991.0
ЮЗ 4 н/о в посл. час осадки н/о +21.6 +18.5 83 +26 +26 душно 1011.5 991.2 0.0
ЮЗ 3 н/о {осадки} н/о +21.1 +17.8 81 +25 +25 комфорт 1011.6 991.2 0.0
штиль 0 н/о в посл. час осадки н/о +19.6 +17.7 89 +22 +22 комфорт 1011.2 990.7 0.1
ЮЗ 2 н/о в посл. час осадки н/о +20.0 +17.5 86 +24 +24 комфорт 1011.4 990.9 0.1
Ю 1 н/о {ливн. дождь} н/о +19.5 +17.9 90 +23 +23 комфорт 1011.5 991.0 0.2
Ю 1 н/о н/о +19.5 +17.8 90 +23 +23 комфорт 1010.9 990.4
ЮЗ 1 н/о н/о +19.5 +17.8 90 +23 +23 комфорт 1010.3 989.8
В 1 н/о в посл. час осадки н/о +19.5 +18.3 93 +23 +23 комфорт 1009.8 989.3 0.1
В 1 18 км в посл. час ливневой дождь 10/10 270 м
[Sc]
+19.3 +18.4 95 +23 +23 комфорт 1009.0 988.7
В 2 н/о ливневой дождь н/о +19.1 +18.4 96 +21 +21 комфорт 1009.6 989.1 1
В 2 18 км слаб. дождь 10/10 270 м
[Sc]
+19.7 +18.8 95 +23 +23 комфорт 1008.5 988.2 +19.1 2
ЮВ 2 н/о ливневой дождь н/о +19.8 +18.8 94 +23 +23 комфорт 1008.8 988.4 0.3
ЮВ 1 н/о осадки н/о +20.2 +18.6 91 +25 +25 комфорт 1008.5 988.1 2
Ю 2 18 км слаб. дождь 10/10 270 м
[Sc]
+20.2 +18.7 91 +24 +24 комфорт 1008.3 988.0
ЮЗ 3 н/о н/о +18.8 +18.3 97 +20 +20 1009.2 988.7 10
ЮЗ 5 н/о осадки н/о +19.1 +18.0 93 +21 +21 комфорт 1009.3 988.8 0.6
З 2 18 км слаб. дождь 10/10 270 м
[Sc]
+19.3 +18.6 96 +22 +22 комфорт 1008.9 988.6 14
З 2 н/о н/о +20.4 +19.1 92 +25 +25 комфорт 1008.5 988.1
ЮЗ 2 н/о н/о +20.7 +18.2 86 +25 +25 комфорт 1008.3 988.0
Ю 2 30 км 9/9 600 м
[Sc]
+21.2 +17.8 81 +25 +26 комфорт 1007.6 987.4
штиль 0 н/о н/о +20.1 +16.6 80 +23 +23 комфорт 1007.1 986.7
СЗ 2 н/о н/о +20.6 +18.3 87 +25 +25 комфорт 1007.2 986.9
СЗ 1 25 км 9/4 600 м
[Sc Ac lent]
+19.6 +17.8 89 +23 +23 комфорт 1006.8 986.5 +21.4 14
СЗ 1 н/о осадки н/о +18.9 +17.8 93 +21 +21 комфорт 1007.2 986.8 0.7
С 1 н/о осадки н/о +17.9 +17.3 96 +19 +19 1006.9 986.4 1
В 1 н/о осадки н/о +17.6 +16.9 96 +19 +19 1006.2 985.7 2
СЗ 1 н/о осадки н/о +16.9 +16.5 97 +18 +18 1006.2 985.6 5
С 1 н/о осадки н/о +17.3 +16.8 97 +18 +18 1006.5 985.9 1
СВ 3 н/о в посл. час осадки н/о +16.6 +16.2 97 +16 +16 1004.9 984.3 11
З 3 н/о осадки н/о +16.6 +16.2 97 +16 +16 1004.8 984.2 0.2
С 2 н/о в посл. час осадки н/о +16.5 +16.1 97 +17 +17 1004.3 983.7 0.2
С 2 н/о {осадки} н/о +16.6 +16.3 98 +17 +17 1004.3 983.7 0.4
штиль 0 6000 м 10/10 270 м
[Frnb]
+17.0 +16.6 97 +17 +17 1004.5 984.1
СВ 1 н/о н/о +16.9 +16.5 97 +18 +18 1004.2 983.7
СЗ 2 3000 м в посл. час дождь 10/10 180 м
[Frnb]
+16.9 +16.5 97 +17 +17 1005.0 984.6 +16.5 11
СЗ 1 н/о н/о +16.8 +16.4 97 +18 +18 1006.1 985.5
З 3 н/о осадки н/о +16.9 +16.6 98 +17 +17 1006.8 986.2
З 4 6000 м в посл. час зёрна {дождь} 10/10 270 м
[Frnb]
+16.7 +16.2 97 +16 +16 1007.3 986.8
З 4 н/о ливневой дождь н/о +17.3 +16.8 97 +17 +17 1009.4 988.8 0.2
З 3 н/о в посл. час осадки н/о +17.0 +16.6 97 +17 +17 1008.5 987.9 0.4
З 4 4500 м в посл. час зёрна {дождь} 10/10 180 м
[Frnb]
+17.6 +16.8 95 +17 +17 1009.8 989.3 1
З 7 н/о осадки н/о +17.0 +16.2 95 +16 +16 1011.1 990.4 0.1
З 7 н/о в посл. час осадки н/о +16.2 +14.7 91 +15 +15 1012.6 991.8 0.1
З 6 н/о {осадки} н/о +15.4 +13.4 88 +14 +14 1013.5 992.6 0.2
ЮЗ 6 н/о ливневой дождь {осадки} н/о +14.3 +13.8 97 +12 +12 1015.3 994.3 0.5
З 7 н/о осадки н/о +14.5 +13.7 95 +12 +12 1014.4 993.5 0.0
ЮЗ 6 н/о туман на расстоянии {дождь, снег} н/о +14.0 +13.6 97 +12 +12 1015.7 994.8 +13.9 +20.1 3
ЮЗ 5 н/о осадки н/о +13.8 +13.4 97 +12 +12 1016.9 995.9 0.3
ЮЗ 5 н/о в посл. час осадки н/о +13.7 +12.9 95 +12 +12 1017.4 996.3 0.1
З 4 н/о {осадки} н/о +13.6 +13.0 96 +12 +12 1017.4 996.3 0.4
З 6 н/о н/о +13.3 +12.4 94 +11 +11 1018.0 996.9
З 6 н/о н/о +13.5 +12.9 96 +11 +11 1017.7 996.6
З 5 н/о {осадки} н/о +13.4 +12.1 92 +11 +11 1018.0 996.9 0.4
З 5 н/о н/о +13.6 +12.4 92 +12 +12 1018.1 997.0
ЮЗ 5 н/о н/о +13.6 +13.0 96 +12 +12 1018.1 997.0 0.0
З 3 н/о н/о +13.5 +12.7 95 +12 +12 1018.5 997.4 0.0
ЮЗ 5 5000 м слаб. морось 10/10 150 м
[Frnb]
+13.5 +13.1 97 +11 +11 1018.5 997.5
З 3 н/о ливневой дождь н/о +13.4 +13.0 97 +12 +12 1018.7 997.6 0.4
З 4 10 км в посл. час зёрна 10/6 270 м
[Frnb]
+13.9 +13.3 96 +12 +13 1018.6 997.7 +13.2 1
ЮЗ 5 н/о осадки н/о +13.9 +13.5 97 +12 +12 1018.9 997.8 0.6
З 5 н/о ливневой дождь н/о +14.0 +13.6 97 +12 +12 1019.3 998.2 0.4
З 4 2000 м дождь {снег} 10/9 150 м
[Frnb]
+14.4 +14.1 98 +13 +13 1019.3 998.4
Местоположение метеостанции Тульн-ан-дер-Донау (Австрия): широта 48.32 долгота 16.12 высота над уровнем моря 176 м.
В архиве по умолчанию представлена погода в Тульн-ан-дер-Донау за последнюю неделю. Архивные данные за месяц целиком и за предыдущие месяцы, начиная с января 2011 года, Вы можете получить, выбрав интересующий диапазон дат из раскрывающегося списка и нажав кнопку "Найти!".
*Определитесь, кто Вы:
Внимание! Время в таблицах - всемирное. Для получения местного времени необходимо прибавить поправку, которая равна 1 ч.
Смотрите также архив погоды в соседних городах и на ближайших метеорологических станциях:
Партнеры нашего сайта:      
Пояснения к столбцам:
  • Ветер - указаны скорость ветра в м/с - средняя за 10 мин, порывы в срок и между сроками (в фигурных скобках) и направление, откуда дует ветер: С - северный,
  • СВ - северо-восточный, В - восточный, ЮВ - юго-восточный, Ю - южный, ЮЗ - юго-западный, З - западный, СЗ - северо-западный.
  • Видимость - горизонтальная дальность видимости в метрах или километрах. При видимости от 1 до 10 км при отсутствии осадков обычно наблюдается дымка, при ухудшении видимости до 1 км и менее - туман. В сухую погоду видимость может ухудшаться дымом, пылью или мглою.
  • Явления - указаны атмосферные явления, наблюдавшиеся в срок или в последний час перед сроком; фигурными скобками обозначены явления, наблюдавшиеся между сроками (за 1-3 часа до срока); квадратными скобками обозначены град или гололедные отложения с указанием их диаметра в мм.
  • Облачность - указаны через наклонную черту общая и нижняя облачность в баллах и высота нижней границы облаков в метрах; квадратными скобками обозначены формы облаков: Ci - перистые, Cs - перисто-слоистые, Cc - перисто-кучевые, Ac - высококучевые, As - высокослоистые, Sc - слоисто-кучевые, Ns - слоисто-дождевые, Cu - кучевые, Cb - кучево-дождевые. Подробнее классификацию облаков см. в Атласе облаков (PDF).
  • T - Температура воздуха - температура, измеренная на высоте 2 м над землей.
  • Td - Температура точки росы - температура, при понижении до которой содержащийся в воздухе водяной пар достигнет насыщения.
  • f - Относительная влажность воздуха - влажноcть воздуха, измеренная на высоте 2 м над землей.
  • Te - Эффективная температура - температура, которую ощущает одетый по сезону человек в тени. Характеристика душности погоды. При расчете учитывается влияние влажности воздуха и скорости ветра на теплоощущения человека.
  • Tes - Эффективная температура на солнце - температура, которую ощущает человек, с поправкой на солнечный нагрев. Характеристика знойности погоды. Зависит от высоты солнца над горизонтом, облачности и скорости ветра. Ночью, в пасмурную погоду, а также при ветре 12 м/с и более поправка равна нулю.
  • P - Атмосферное давление - приведенное к уровню моря атмосферное давление.
  • Po - Атмосферное давление - измеренное на уровне метеостанции атмосферное давление.
  • Tmin - Минимальная температура - минимум температуры воздуха на высоте 2 м над землей.
  • Tmax - Максимальная температура - максимум температуры воздуха на высоте 2 м над землей.
  • R - Количество осадков - Количество выпавших осадков за период времени, мм. При наведении курсора мыши на число - период времени, за который выпало указанное количество осадков.
  • R24 - Количество осадков - Количество выпавших осадков за 24 часа, мм.
  • S - Снежный покров - Высота снежного покрова, см. При наведении курсора мыши на число - состояние снежного покрова и степень покрытия местности в баллах.